Location: Curupao
(10.4996°N, 66.6442°W)
Time: 21:35:11
(UTC+00:00)

CZ-4B R/B - Pass Details

Date: 23 May 2024
Orbit: 808 x 881 km, 99.0° (Epoch: 25 June)

Event Time Altitude Azimuth Distance (km) Brightness Sun altitude
Exits shadow 00:53:19 64° 246° (WSW) 922 3.4 -29.7°
Maximum altitude 00:53:30 64° 257° (WSW) 918 3.4 -29.8°
Drops below altitude 10° 00:58:47 10° 339° (NNW) 2,415 6.2 -30.9°
Sets 01:01:08 0° 342° (NNW) 3,339 7.0 -31.4°
